Regional Weather Roundup
Issued by NWS Sterling, VA

Home | Current Version | Previous Version | Text Only | Print | Product List | Glossary Off
Versions: 1 2 3 4 5 6 7 8 9 10 11 12 13 14 15 16 17 18 19 20 21 22 23 24 25 26 27 28 29 30 31 32 33 34 35 36 37 38 39 40 41 42 43 44 45 46 47 48 49 50

000
ASUS41 KLWX 230510
RWRLWX

REGIONAL WEATHER ROUNDUP
NATIONAL WEATHER SERVICE BALTIMORE MD/WASHINGTON DC
100 AM EDT SAT AUG 23 2014

Note: "FAIR" indicates few or no clouds below 12,000 feet
with no significant weather and/or obstructions to visibility.
 TC=TEMPERATURE CELSIUS

 * =Non NWS site. Station does not report precipitation (e.g. rain,
    snow, etc.), thunder, or fog.

DCZ001-MDZ009-015-VAZ040>042-051-053>054-230600-
WASHINGTON METRO
  /KDAA//-FT BELVOIR

CITY           SKY/WX    TMP DP  RH WIND       PRES   REMARKS
WASHINGTON NAT CLOUDY    76  68  76 E7        30.01F
DULLES         CLOUDY    71  69  93 SE8       30.00F
ANDREWS AFB    MOCLDY    70  70  99 E6        30.01S
QUANTICO       MOCLDY    74  70  87 E6        30.00F
COLLEGE PARK*  MOCLDY    72  70  94 CALM      30.00F
LEESBURG*      CLOUDY    73  72  94 SE7       30.01F
MANASSAS*      CLOUDY    73  73 100 E3        29.99F
GAITHERSBURG*  MOCLDY    70  66  88 E3        30.05S

$$

MDZ006>007-011-014-230600-
BALTIMORE METRO

CITY           SKY/WX    TMP DP  RH WIND       PRES   REMARKS
BWI AIRPORT    MOCLDY    71  66  84 E8        30.01F
MD SCIENCE CTR   N/A     73  65  75 MISG      30.02S
MARTIN STATE   CLEAR     72  66  83 E8        30.03S
ANNAPOLIS        N/A     73  66  78 E9        30.01S
FORT MEADE*    MOCLDY    70  64  83 E3        30.03S

$$

MDZ012-015-019>023-230600-
MARYLAND EASTERN SHORE

CITY           SKY/WX    TMP DP  RH WIND       PRES   REMARKS
OCEAN CITY     PTCLDY    72  67  84 NE9       29.99F
SALISBURY      CLEAR     70  66  87 CALM      30.00S
BAY BRIDGE AP*   N/A     70  64  83 E6        30.01F
CAMBRIDGE*     PTCLDY    70  66  88 NE3       30.00S
EASTON*        PTCLDY    69  69 100 CALM      30.05S

$$

MDZ017>025-230600-
SOUTHERN MARYLAND

CITY           SKY/WX    TMP DP  RH WIND       PRES   REMARKS
PATUXENT RIVER CLOUDY    73  68  84 E10       30.00S
ST INIGOES     MOCLDY    72  66  81 E6        29.99F
LEONARDTOWN*   CLOUDY    72  66  83 E3        30.01F

$$

MDZ003>005-230600-
NORTH CENTRAL MARYLAND

CITY           SKY/WX    TMP DP  RH WIND       PRES   REMARKS
FREDERICK*     RAIN     N/A N/A N/A CALM      30.04S
HAGERSTOWN APT CLOUDY    72  68  87 S3        30.00F
WESTMINSTER*   PTCLDY    70  66  88 SE8       30.02F

$$

MDZ501>502-230600-
WESTERN MARYLAND

CITY           SKY/WX    TMP DP  RH WIND       PRES   REMARKS
OAKLAND*       CLOUDY    64 N/A N/A CALM      30.09S FOG
CUMBERLAND*    CLOUDY    72  70  94 CALM      30.03F

$$

VAZ025>031-230600-
SHENANDOAH VALLEY

CITY           SKY/WX    TMP DP  RH WIND       PRES   REMARKS
WINCHESTER*    CLOUDY    72  70  94 SE6       30.00S
STAUNTON*      CLOUDY    73  70  90 CALM      30.02F

$$

WVZ021-048>050-054>055-230600-
EASTERN WEST VIRGINIA PANHANDLE

CITY           SKY/WX    TMP DP  RH WIND       PRES   REMARKS
MARTINSBURG    CLOUDY    73  67  81 CALM      30.00F
PETERSBURG*    NOT AVBL

$$

VAZ036>039-050-230600-
CENTRAL FOOTHILLS

CITY           SKY/WX    TMP DP  RH WIND       PRES   REMARKS
CHARLOTTESVILL CLOUDY    72  70  93 SE5       29.99F
ORANGE*        CLOUDY    70  70 100 N5        30.01S FOG

$$

VAZ055>057-230600-
NORTH AND CENTRAL PIEDMONT

CITY           SKY/WX    TMP DP  RH WIND       PRES   REMARKS
FREDERICKSBRG* PTCLDY    73  73 100 E3        29.98F
STAFFORD*      CLOUDY    73  73 100 E6        30.03F

$$

NCZ024-NYZ072-PAZ021-071-VAZ022-071-230600-
OTHER REGIONAL OBSERVATIONS

CITY           SKY/WX    TMP DP  RH WIND       PRES   REMARKS
NEW YORK CITY  MOCLDY    69  55  60 E7        30.08S
PHILADELPHIA   MOCLDY    69  62  78 NE6       30.04S
PITTSBURGH     PTCLDY    69  68  96 W6        29.99F
ROANOKE        CLOUDY    74  69  85 W6        30.01F
RICHMOND       CLOUDY    74  71  91 E7        29.98F
RALEIGH        CLOUDY    76  73  91 CALM      29.97F

$$

ANZ530>537-230600-
MARINE OBSERVATIONS

STATION/POSITION TIME  TEMP    WIND        PRES
                       AIR SEA DIR/SP/G
                 (UTC) (F)     (DEG/KT/KT) (MB)
THOMAS PT LIGHT  0500   72 78   80/ 12/ 13 1016.6F
BALT KEY BRIDGE  0500   73      80/ 12/ 13 1016.0F
COVE POINT       0500   71     130/  8/ 11 1015.9F
LEWISETTA        0500   75 80  110/ 14/ 15 1015.1S
SOLOMONS ISLAND  0500      79                N/A
PINEY POINT      0500          120/ 12/ 13   N/A

$$



USA.gov is the U.S. government's official web portal to all federal, state and local government web resources and services.